Tracking 23731 objects as of 26-Sep-2021
HD Live streaming from Space Station
objects crossing your sky now

INSAT 3B

Track INSAT 3B now!
INSAT 3B is classified as:


NORAD ID: 26108
Int'l Code: 2000-016B
Perigee: 35,949.8 km
Apogee: 35,984.8 km
Inclination: 7.3 °
Period: 1,445.0 minutes
Semi major axis: 42338 km
RCS: 5.0119 m2 (large)
Launch date: March 21, 2000
Source: India (IND)
Launch site: FRENCH GUIANA (FRGUI)

Voice, data and fax transmissions.
aabbcc
Your satellite tracking list
Your tracking list is empty




NASA's NSSDC Master Catalog

Two Line Element Set (TLE):
1 26108U 00016B   21268.55281589  .00000123  00000-0  00000-0 0  9992
2 26108   7.2951  58.4659 0004136 162.3360  30.9330  0.99655819 34237
Source of the keplerian elements: AFSPC